Change the Weather History Date:

Sunday, March 9, 2014

  Actual Average (KMBS) Record (KMBS)
Temperature  
Mean Temperature 22 °F 31 °F  
Max Temperature 36 °F 39 °F 54 °F (2002)
Min Temperature 7 °F 23 °F -2 °F (2003)
Degree Days  
Heating Degree Days 44    
Month to date heating degree days  
Since 1 July heating degree days  
Cooling Degree Days 0    
Month to date cooling degree days  
Year to date cooling degree days  
Moisture  
Dew Point 16 °F    
Average Humidity 70    
Maximum Humidity 90    
Minimum Humidity 48    
Precipitation  
Precipitation 0.00 in 0.07 in 0.98 in (1998)
Month to date precipitation 0.62  
Year to date precipitation 3.94  
Snow  
Snow 0.00 in - - ()
Month to date snowfall  
Since 1 July snowfall  
Snow Depth -    
Sea Level Pressure  
Sea Level Pressure 30.00 in    
Wind  
Wind Speed 7 mph (SW)    
Max Wind Speed 20 mph    
Max Gust Speed 28 mph    
Visibility 10 miles    
Events      
T = Trace of Precipitation, MM = Missing Value Source: NWS Daily Summary

Daily Weather History Graph

Daily Weather History Graph

Search for Another Location

Airport or City:

Trip Planner

Search our weather history database for the weather conditions in past years. The results will help you decide how hot, cold, wet, or windy it might be!

Date:

Astronomy

Mar. 09, 2014 Rise Set
Actual Time 7:59 AM EDT 7:35 PM EDT
Civil Twilight 7:31 AM EDT 8:04 PM EDT
Nautical Twilight 6:58 AM EDT 8:37 PM EDT
Astronomical Twilight 6:24 AM EDT 9:11 PM EDT
Moon 1:19 PM EDT (3/9) 3:32 AM EDT (3/9)
Length of Visible Light 12h 33m
Length of Day
11h 36m
First Quarter, 61% of the Moon is Illuminated
Mar 9
First Quarter
Mar 16
Full
Mar 23
Last Quarter
Mar 30
New
Apr 7
First Quarter

Hourly Weather History & Observations

Time (EDT) Temp. Windchill Dew Point Humidity Pressure Visibility Wind Dir Wind Speed Gust Speed Precip Events Conditions
12:13 AM 19.8 °F 10.8 °F 10.9 °F 69% 30.17 in 10.0 mi NW 6.9 mph - N/A   Clear
12:33 AM 19.4 °F 10.4 °F 10.4 °F 68% 30.17 in 10.0 mi NW 6.9 mph - N/A   Clear
12:53 AM 18.7 °F 13.5 °F 9.7 °F 68% 30.17 in 10.0 mi WNW 3.5 mph - N/A   Clear
1:13 AM 17.8 °F 10.9 °F 9.5 °F 70% 30.16 in 10.0 mi WNW 4.6 mph - N/A   Clear
1:33 AM 17.2 °F 10.2 °F 9.3 °F 71% 30.17 in 10.0 mi WNW 4.6 mph - N/A   Clear
1:53 AM 16.7 °F - 9.1 °F 72% 30.16 in 10.0 mi Calm Calm - N/A   Clear
3:13 AM 14.5 °F - 9.0 °F 79% 30.17 in 10.0 mi Calm Calm - N/A   Clear
3:33 AM 12.6 °F - 8.2 °F 83% 30.17 in 10.0 mi Calm Calm - N/A   Clear
3:53 AM 12.6 °F - 7.9 °F 82% 30.17 in 10.0 mi Calm Calm - N/A   Clear
4:13 AM 12.7 °F - 8.4 °F 83% 30.16 in 10.0 mi Calm Calm - N/A   Clear
4:33 AM 10.4 °F - 6.4 °F 84% 30.15 in 10.0 mi Calm Calm - N/A   Clear
4:53 AM 10.8 °F - 7.7 °F 87% 30.15 in 10.0 mi Calm Calm - N/A   Clear
5:13 AM 10.4 °F - 7.7 °F 89% 30.15 in 10.0 mi Calm Calm - N/A   Clear
5:33 AM 10.8 °F - 8.2 °F 90% 30.15 in 10.0 mi Calm Calm - N/A   Clear
5:53 AM 9.0 °F - 6.4 °F 89% 30.16 in 10.0 mi Calm Calm - N/A   Clear
6:13 AM 9.5 °F - 6.8 °F 89% 30.16 in 10.0 mi Calm Calm - N/A   Clear
6:33 AM 9.0 °F - 6.4 °F 89% 30.16 in 10.0 mi Calm Calm - N/A   Clear
6:54 AM 10.4 °F - 7.7 °F 89% 30.16 in 10.0 mi Calm Calm - N/A   Clear
7:13 AM 8.1 °F - 5.0 °F 87% 30.16 in 10.0 mi Calm Calm - N/A   Clear
7:33 AM 7.7 °F - 4.6 °F 87% 30.17 in 10.0 mi Calm Calm - N/A   Clear
7:53 AM 10.2 °F - 7.7 °F 90% 30.17 in 10.0 mi Calm Calm - N/A   Clear
8:13 AM 11.7 °F - 8.6 °F 88% 30.16 in 10.0 mi Calm Calm - N/A   Clear
8:33 AM 11.8 °F - 8.8 °F 88% 30.16 in 10.0 mi Calm Calm - N/A   Clear
8:54 AM 12.4 °F - 9.5 °F 88% 30.16 in 10.0 mi Calm Calm - N/A   Clear
9:13 AM 14.4 °F 5.5 °F 11.1 °F 87% 30.15 in 10.0 mi SW 5.8 mph - N/A   Clear
9:33 AM 16.5 °F 8.1 °F 12.2 °F 83% 30.16 in 10.0 mi WSW 5.8 mph - N/A   Scattered Clouds
9:53 AM 18.5 °F 11.7 °F 13.6 °F 81% 30.16 in 10.0 mi SW 4.6 mph - N/A   Mostly Cloudy
10:13 AM 20.5 °F 10.8 °F 15.6 °F 81% 30.15 in 10.0 mi SW 8.1 mph - N/A   Scattered Clouds
10:33 AM 22.8 °F 12.2 °F 17.6 °F 80% 30.14 in 10.0 mi SW 10.4 mph - N/A   Clear
10:53 AM 24.6 °F 15.8 °F 18.5 °F 78% 30.13 in 10.0 mi SW 8.1 mph - N/A   Clear
11:13 AM 26.1 °F 16.8 °F 18.9 °F 74% 30.11 in 10.0 mi SW 9.2 mph - N/A   Clear
11:33 AM 27.5 °F 18.6 °F 19.2 °F 71% 30.11 in 10.0 mi SW 9.2 mph 16.1 mph N/A   Clear
11:54 AM 28.8 °F 17.9 °F 19.6 °F 69% 30.10 in 10.0 mi WSW 13.8 mph 18.4 mph N/A   Clear
12:13 PM 30.0 °F 19.1 °F 19.6 °F 65% 30.09 in 10.0 mi SW 15.0 mph 19.6 mph N/A   Clear
12:33 PM 30.6 °F 21.2 °F 19.0 °F 62% 30.09 in 10.0 mi WSW 11.5 mph 20.7 mph N/A   Clear
12:53 PM 31.3 °F 21.6 °F 19.4 °F 61% 30.08 in 10.0 mi WSW 12.7 mph 20.7 mph N/A   Clear
1:13 PM 32.0 °F 22.1 °F 19.2 °F 59% 30.05 in 10.0 mi SW 13.8 mph 21.9 mph N/A   Clear
1:33 PM 32.0 °F 22.1 °F 20.1 °F 62% 30.05 in 10.0 mi SW 13.8 mph 19.6 mph N/A   Clear
1:53 PM 32.0 °F 23.6 °F 21.0 °F 64% 30.04 in 10.0 mi SSW 10.4 mph 19.6 mph N/A   Clear
2:13 PM 32.0 °F 21.6 °F 21.0 °F 64% 30.02 in 10.0 mi SSW 15.0 mph 20.7 mph N/A   Clear
2:33 PM 32.4 °F 22.1 °F 21.2 °F 63% 30.00 in 10.0 mi SSW 15.0 mph 18.4 mph N/A   Clear
2:53 PM 32.4 °F 22.1 °F 21.2 °F 63% 29.98 in 10.0 mi SSW 15.0 mph 19.6 mph N/A   Clear
3:13 PM 33.3 °F 22.8 °F 20.7 °F 60% 29.96 in 10.0 mi SW 16.1 mph 23.0 mph N/A   Clear
3:33 PM 33.6 °F 23.7 °F 19.9 °F 57% 29.95 in 10.0 mi SW 15.0 mph 26.5 mph N/A   Clear
3:53 PM 34.2 °F 23.0 °F 20.5 °F 57% 29.92 in 10.0 mi SW 19.6 mph 26.5 mph N/A   Clear
4:13 PM 34.9 °F 26.6 °F 20.7 °F 56% 29.92 in 10.0 mi SSW 11.5 mph - N/A   Clear
4:33 PM 35.2 °F 25.8 °F 20.8 °F 56% 29.91 in 10.0 mi SSW 15.0 mph 20.7 mph N/A   Clear
4:53 PM 35.4 °F 27.3 °F 20.7 °F 55% 29.90 in 10.0 mi SW 11.5 mph 20.7 mph N/A   Clear
5:13 PM 35.4 °F 27.3 °F 18.9 °F 51% 29.88 in 10.0 mi SW 11.5 mph 20.7 mph N/A   Clear
5:33 PM 36.0 °F 26.7 °F 18.7 °F 50% 29.87 in 10.0 mi WSW 15.0 mph 27.6 mph N/A   Clear
5:53 PM 36.0 °F 25.3 °F 18.1 °F 48% 29.86 in 10.0 mi SSW 19.6 mph 23.0 mph N/A   Clear
6:13 PM 35.8 °F 26.9 °F 19.2 °F 51% 29.84 in 10.0 mi SSW 13.8 mph 23.0 mph N/A   Clear
6:33 PM 35.6 °F 25.2 °F 20.1 °F 53% 29.84 in 10.0 mi SW 18.4 mph 23.0 mph N/A   Clear
6:53 PM 35.4 °F 27.3 °F 20.5 °F 55% 29.84 in 10.0 mi SSW 11.5 mph 19.6 mph N/A   Clear
7:13 PM 34.9 °F 26.2 °F 20.7 °F 56% 29.82 in 10.0 mi SSW 12.7 mph 19.6 mph N/A   Clear
7:34 PM 34.7 °F 25.1 °F 20.8 °F 57% 29.80 in 10.0 mi SSW 15.0 mph 18.4 mph N/A   Clear
7:53 PM 34.3 °F 23.5 °F 20.3 °F 57% 29.79 in 10.0 mi SSW 18.4 mph 23.0 mph N/A   Clear
8:13 PM 33.8 °F 23.5 °F 20.3 °F 58% 29.78 in 10.0 mi SW 16.1 mph 23.0 mph N/A   Clear
8:33 PM 34.0 °F 23.8 °F 21.0 °F 59% 29.77 in 10.0 mi SW 16.1 mph 23.0 mph N/A   Clear
8:53 PM 33.8 °F 23.5 °F 21.0 °F 60% 29.77 in 10.0 mi SW 16.1 mph 23.0 mph N/A   Clear
9:13 PM 33.1 °F 23.0 °F 21.2 °F 62% 29.76 in 10.0 mi SW 15.0 mph 20.7 mph N/A   Clear
9:33 PM 33.3 °F 23.2 °F 21.4 °F 62% 29.76 in 10.0 mi SW 15.0 mph 21.9 mph N/A   Clear
9:53 PM 33.8 °F 23.9 °F 21.9 °F 62% 29.76 in 10.0 mi SW 15.0 mph 27.6 mph N/A   Clear
10:14 PM 34.0 °F 23.0 °F 22.6 °F 63% 29.76 in 10.0 mi SW 18.4 mph 24.2 mph N/A   Clear
10:33 PM 34.0 °F 23.8 °F 23.2 °F 65% 29.75 in 10.0 mi SW 16.1 mph 21.9 mph N/A   Clear
10:53 PM 33.8 °F 23.9 °F 23.7 °F 67% 29.75 in 10.0 mi SW 15.0 mph - N/A   Clear
11:14 PM 33.8 °F 26.4 °F 24.1 °F 68% 29.76 in 10.0 mi WSW 9.2 mph - N/A   Scattered Clouds
11:33 PM 33.8 °F 27.0 °F 24.8 °F 70% 29.76 in 10.0 mi WSW 8.1 mph - N/A   Scattered Clouds
11:53 PM 33.8 °F 27.0 °F 25.2 °F 71% 29.76 in 10.0 mi WSW 8.1 mph - N/A   Scattered Clouds
12:14 AM 33.4 °F 26.6 °F 25.7 °F 73% 29.75 in 10.0 mi SW 8.1 mph - N/A   Scattered Clouds
12:33 AM 32.7 °F 26.4 °F 25.7 °F 75% 29.75 in 10.0 mi SW 6.9 mph - N/A   Clear
12:53 AM 32.2 °F 25.0 °F 25.9 °F 78% 29.73 in 10.0 mi SSW 8.1 mph - N/A   Clear